Temp
24 24 24 23 23 23 23 24 24 24 24 24 24 25 25 25 24 24 24 24 23 23 23 23 23 23 23 23 23 22 22 23 23 22 22 22 22 22 22 22 22 22
24 24 24 23 23 23 23 24 24 24 24 24 25 25 25 25 24 24 24 24 23 23 23 23 23 23 23 23 23 22 23 23 23 22 22 22 22 22 22 22 22 22
24 24 24 23 23 23 23 24 24 24 24 24 25 25 25 25 24 24 24 24 24 23 23 23 23 23 23 23 23 23 23 23 23 22 22 22 22 22 22 22 22 22
24 24 24 24 23 23 23 23 24 24 24 24 24 25 24 24 24 24 24 24 24 23 23 23 23 23 23 23 23 23 23 23 23 23 23 22 22 22 22 22 22 22
24 24 24 24 23 24 23 23 24 24 24 24 24 24 24 24 24 24 24 23 23 23 23 23 23 23 23 23 23 23 23 23 22 23 23 22 22 22 22 22 22 22
24 24 24 24 24 23 23 23 23 24 24 24 24 24 24 24 24 24 24 23 23 23 23 23 23 23 23 23 23 23 23 23 23 23 23 22 22 22 22 22 22 22
24 24 24 24 23 23 23 23 23 24 24 24 24 24 24 24 24 24 24 24 23 23 23 23 23 23 23 23 23 23 23 23 23 23 22 22 22 22 22 22 22 22
24 24 24 23 23 23 23 23 23 23 24 24 23 24 24 24 24 24 24 23 23 23 23 23 23 23 23 23 23 23 23 23 23 23 22 22 22 22 22 22 22 22
24 24 24 23 23 23 23 23 23 23 23 23 23 23 24 24 24 24 23 23 23 23 23 23 23 23 23 23 23 23 23 23 23 23 22 22 22 22 22 22 22 22
24 24 24 23 23 23 23 23 23 23 23 23 23 23 23 23 23 23 23 23 23 23 23 23 23 23 23 23 23 23 23 23 23 23 22 22 22 22 22 22 22 22
24 24 24 24 23 23 23 23 23 23 23 23 23 23 23 23 23 23 23 23 23 23 23 23 23 23 23 23 23 23 23 23 23 23 22 22 22 22 22 22 22 22
24 24 24 24 24 24 23 23 23 23 23 23 23 23 23 23 23 23 23 23 23 23 23 23 23 23 23 23 23 23 23 23 23 23 23 22 22 22 22 22 22 22
24 24 24 24 24 24 24 23 23 23 23 23 23 23 23 23 23 23 23 23 23 23 23 23 23 23 23 23 23 23 23 23 22 22 22 22 22 22 22 22 22 22
25 24 24 24 24 24 24 24 23 23 23 23 23 23 23 23 23 23 23 23 23 23 23 23 23 23 23 22 22 22 22 22 22 22 22 22 22 22 22 21 22 22
25 24 24 24 24 24 24 24 23 23 23 23 23 23 23 23 23 23 23 23 23 23 23 22 22 22 22 22 22 22 22 22 22 22 22 22 21 21 21 21 21 21
25 25 24 24 24 24 24 24 24 23 23 23 23 23 23 23 23 23 23 23 23 22 22 22 22 22 22 22 22 22 22 22 22 22 22 21 21 21 21 21 22 21
25 25 24 24 24 24 24 24 23 23 23 23 23 23 23 23 23 23 23 23 22 22 22 22 22 22 22 22 22 22 22 22 22 22 22 21 21 22 22 22 22 21
25 25 24 24 24 24 24 24 23 23 23 23 23 23 23 23 23 23 23 23 22 22 22 22 22 22 22 22 22 22 22 22 22 22 22 21 21 21 22 22 22 21
25 25 25 24 24 24 24 24 24 23 23 23 23 23 23 23 23 23 23 23 22 22 22 22 22 22 22 22 22 22 22 21 21 22 22 21 21 21 21 21 21 20
25 25 25 24 24 24 24 24 24 24 24 23 23 23 23 23 23 23 23 23 22 22 22 22 22 22 22 22 22 22 21 20 20 22 22 20 20 21 21 21 20 20
25 25 25 25 24 24 24 24 24 24 24 23 23 23 23 23 23 23 23 23 23 22 22 22 22 22 22 22 22 21 21 20 19 20 21 19 20 20 20 20 20 20
25 25 25 25 24 24 24 24 24 24 24 23 23 23 23 23 23 23 23 23 22 22 22 22 22 22 22 22 22 21 20 19 18 19 20 19 19 20 20 20 20 19
26 25 25 25 24 24 24 24 24 24 24 23 23 23 23 23 23 23 23 23 23 22 22 22 22 22 22 22 22 21 20 19 19 19 19 18 19 20 20 19 19 19
26 26 25 25 24 24 24 24 24 24 24 24 23 23 23 23 23 23 23 23 23 22 23 23 22 22 22 22 22 20 19 19 19 19 18 18 19 19 18 18 19 19
26 26 26 25 25 25 24 24 24 24 24 24 23 23 23 23 23 23 23 23 23 23 23 23 22 22 22 22 21 20 19 19 19 19 18 18 18 18 18 18 19 19
26 26 26 26 25 25 25 25 24 24 24 24 24 24 23 23 23 23 23 22 22 23 23 22 22 22 22 22 21 21 19 18 18 18 17 18 18 18 18 18 19 19
Height
776 778 781 784 786 788 791 793 795 798 799 800 801 801 803 805 807 810 812 814 816 818 820 822 824 825 826 828 829 831 832 834 835 836 837 838 839 839 840 840 840 841
772 775 778 781 783 786 788 790 793 795 797 798 799 800 801 804 806 808 810 813 815 817 819 821 822 824 825 827 828 830 831 833 834 835 836 836 837 838 838 839 839 840
769 771 774 777 779 782 784 787 790 792 794 796 797 799 800 802 804 806 808 811 813 816 818 819 821 822 824 826 827 829 830 831 832 833 834 835 835 836 837 838 838 839
765 767 770 773 776 779 782 784 787 789 792 794 795 797 799 800 802 804 807 809 811 814 815 817 819 821 823 824 826 827 828 829 830 831 832 833 834 834 835 837 837 838
761 764 767 770 773 776 779 781 783 785 788 791 793 795 797 799 800 802 804 807 809 812 813 815 817 819 821 822 823 825 826 827 828 829 830 831 832 833 834 835 836 836
758 760 763 767 770 773 775 777 780 782 785 788 791 793 795 796 798 800 802 804 807 809 811 813 815 816 818 820 821 822 823 824 825 827 828 829 830 831 832 834 834 835
754 757 760 763 766 770 771 773 776 779 782 785 788 791 792 794 796 797 800 802 804 807 808 810 812 813 815 816 818 819 820 821 823 824 826 827 829 830 830 831 832 833
751 754 757 760 763 766 767 770 773 775 778 782 785 788 790 791 793 795 797 800 802 804 806 807 809 810 812 813 814 815 816 818 820 822 823 825 826 827 827 828 829 830
748 750 753 756 758 761 763 765 768 772 775 778 781 784 787 789 791 793 795 797 799 801 803 804 806 807 808 809 810 812 813 815 817 819 821 822 823 824 825 827 828 828
744 746 749 752 754 756 758 761 765 768 771 775 778 781 784 786 789 790 792 794 796 798 799 801 802 803 804 805 806 808 810 812 814 816 817 819 820 821 823 825 826 827
740 743 745 747 750 752 754 757 761 765 768 771 774 778 781 783 786 787 789 790 792 793 795 796 797 799 800 801 803 806 808 810 811 813 815 816 818 820 822 823 824 824
735 738 740 743 746 748 751 755 758 761 764 767 770 773 777 780 782 784 785 786 788 789 791 792 794 795 796 798 801 803 805 807 808 811 812 814 816 818 820 821 822 822
729 732 736 739 742 745 749 753 755 758 760 763 766 769 773 775 777 780 781 782 783 785 786 788 790 792 793 795 798 800 802 804 806 808 810 812 814 816 818 819 820 821
723 728 732 735 739 743 747 750 753 755 757 760 763 765 768 770 772 774 776 778 779 781 783 785 787 788 790 792 795 797 799 801 803 806 808 810 813 815 817 819 820 820
719 724 728 732 737 740 743 746 749 752 754 757 759 760 763 765 767 770 772 774 776 778 780 782 783 784 785 788 791 793 796 798 801 803 805 808 811 815 818 819 820 819
716 720 724 729 733 736 739 742 745 749 751 753 754 755 757 760 763 765 767 769 772 774 776 778 779 780 781 784 787 789 792 795 798 801 803 806 810 813 813 813 814 815
712 716 720 724 727 731 735 739 742 745 747 749 750 751 752 755 757 760 762 765 767 769 772 774 774 775 777 780 783 785 788 792 796 799 801 803 805 806 806 807 809 812
708 712 716 720 723 727 731 735 739 742 743 744 745 746 748 750 752 754 756 759 762 765 767 769 769 771 773 775 778 781 784 789 794 796 798 799 801 802 804 806 807 809
704 708 712 715 718 722 726 731 734 736 737 738 739 741 744 745 746 748 750 754 757 759 762 763 765 766 768 771 773 776 782 787 791 793 795 796 799 801 803 805 805 806
700 703 707 710 714 718 722 725 727 728 730 732 735 738 739 739 740 742 745 748 750 753 756 758 759 761 764 767 769 773 780 784 787 791 794 795 797 799 801 802 803 804
694 698 702 706 710 714 717 718 720 722 724 727 730 732 734 734 735 737 739 742 745 748 751 752 754 756 759 762 765 771 777 780 784 791 794 792 792 795 798 800 801 801
689 693 697 701 705 709 710 712 714 716 718 721 724 727 729 730 731 732 734 737 740 743 745 747 749 751 754 758 762 768 774 778 782 787 787 786 788 791 794 796 796 797
683 687 691 695 699 702 703 706 708 710 713 716 719 722 724 725 726 727 729 732 735 737 740 742 744 747 749 753 758 764 769 774 777 778 781 784 787 788 790 791 792 794
677 681 685 689 692 694 697 700 703 705 708 711 714 717 718 720 722 724 726 728 730 732 735 737 739 742 745 749 754 758 763 768 772 774 777 782 785 786 786 787 789 791
671 675 678 681 684 687 690 694 697 700 704 707 710 712 714 717 719 722 723 724 726 729 731 733 735 738 741 746 751 754 758 763 768 771 774 777 779 782 783 783 785 787
666 669 671 673 676 679 683 687 691 695 699 703 706 709 712 715 717 719 720 722 725 727 729 730 732 734 739 743 747 751 754 759 765 769 772 774 775 777 779 780 781 783
Wind_Speed
41 40 38 37 36 36 35 35 35 35 35 35 35 35 35 34 32 32 31 31 29 28 27 25 26 26 26 25 25 24 23 23 22 21 21 19 18 18 18 18 18 15
42 40 38 36 35 35 36 36 36 35 36 36 36 36 35 34 32 32 31 31 30 28 27 26 27 28 26 26 25 24 24 24 23 22 21 20 18 17 18 18 18 16
43 41 40 37 36 36 36 36 36 36 36 36 36 35 34 34 33 32 31 31 30 29 28 28 29 29 27 25 26 25 25 25 25 23 22 21 19 18 18 18 18 16
43 42 41 39 37 37 36 35 35 36 36 35 35 35 34 34 33 32 31 31 31 30 30 30 30 30 28 26 26 27 27 26 26 25 23 22 21 20 19 19 18 17
43 43 42 39 38 36 36 36 36 36 36 35 35 35 35 34 33 32 32 32 32 32 31 31 31 31 30 29 29 29 29 29 28 27 25 24 22 22 21 21 20 18
42 43 42 40 38 37 37 37 37 37 37 36 35 35 35 35 34 33 33 33 33 33 33 32 32 33 32 31 31 31 31 31 30 29 27 25 23 22 23 23 22 20
41 42 41 39 38 37 38 38 37 37 37 36 35 35 36 35 35 34 33 34 34 34 34 34 34 34 34 33 33 32 32 32 32 31 29 26 23 23 24 25 25 24
41 41 40 39 38 38 39 39 38 37 37 35 35 35 36 36 35 34 34 34 34 35 35 35 35 36 36 35 35 34 34 33 33 33 31 28 26 25 25 26 27 26
40 40 40 39 39 39 40 40 38 37 36 35 36 36 36 36 36 35 34 35 35 36 36 36 37 37 38 37 37 36 35 34 34 34 33 31 30 29 27 27 27 27
40 40 39 38 39 40 41 40 38 37 36 36 36 35 35 36 35 35 35 35 36 36 37 38 39 39 39 39 39 38 37 35 34 35 34 33 33 32 30 29 29 28
40 39 39 39 40 41 41 40 38 36 36 36 36 35 35 35 34 35 35 36 37 38 39 40 40 41 41 40 40 39 38 37 36 35 35 35 34 33 32 31 31 30
40 40 40 40 40 40 40 39 37 36 36 36 37 36 35 34 35 36 36 38 39 39 40 41 41 42 42 42 41 40 39 38 37 36 36 35 35 34 33 33 32 32
41 42 41 40 40 40 39 38 37 36 36 36 37 36 36 35 35 37 38 39 40 40 41 42 42 42 43 42 41 40 40 39 37 37 36 36 35 34 34 34 34 33
43 42 41 40 39 39 38 37 36 36 36 36 36 36 37 37 37 38 39 40 40 41 41 41 41 43 43 42 41 40 41 39 38 37 37 35 34 34 33 33 33 34
42 40 40 39 37 37 38 37 36 36 36 36 36 37 38 38 38 39 39 39 40 41 41 40 41 43 44 44 42 41 41 40 38 37 36 35 31 28 28 29 31 33
40 39 38 37 37 37 37 37 36 36 36 36 37 37 38 39 39 38 38 39 39 40 40 40 42 44 45 45 44 43 42 40 37 36 35 31 27 26 28 30 33 35
38 38 37 37 37 37 37 36 35 35 36 37 38 39 39 39 39 39 39 39 39 39 40 40 42 44 45 45 45 44 43 40 37 35 33 29 28 31 33 32 33 35
38 37 37 37 37 37 37 35 35 35 36 38 39 40 40 39 39 40 40 40 39 38 39 41 43 45 45 45 45 46 45 40 36 35 33 33 33 34 33 31 30 32
37 36 37 37 38 38 36 35 35 37 39 40 40 40 39 39 40 41 41 41 39 39 40 41 43 44 45 45 45 47 44 38 35 36 36 36 35 33 32 32 32 31
36 37 38 37 37 36 36 36 39 40 41 41 39 38 39 40 41 41 41 41 41 41 41 41 43 44 45 45 45 45 42 37 37 38 36 33 32 32 32 33 33 31
37 38 38 37 36 36 37 39 41 41 41 40 39 39 41 41 41 41 41 41 41 41 40 41 43 44 44 45 44 42 40 37 35 36 36 33 32 32 31 32 33 32
38 38 36 36 36 37 39 40 41 41 42 41 40 39 40 40 40 40 41 40 40 41 41 41 42 43 43 44 43 40 39 36 34 37 41 39 34 32 32 35 35 31
39 38 37 37 37 39 40 40 40 41 42 41 39 38 39 40 40 39 40 41 41 41 41 41 41 41 42 43 41 38 37 37 37 40 41 37 33 34 36 37 36 30
40 40 38 38 39 41 41 40 41 41 41 40 39 40 41 41 39 38 38 41 42 42 42 42 40 40 41 40 39 38 38 39 39 38 36 35 35 36 35 35 34 29
40 41 41 41 42 42 41 41 42 41 40 39 40 40 40 38 37 37 37 39 40 41 42 42 39 38 39 38 36 37 39 41 39 35 34 36 38 36 33 32 30 26
40 42 43 44 44 44 43 43 42 39 38 39 39 39 37 35 35 36 35 35 36 37 39 39 38 37 37 36 35 36 38 40 38 35 35 37 37 34 32 29 26 23
Wind_Direction
213 214 216 216 215 216 217 219 220 221 222 222 221 222 222 223 223 220 220 222 224 225 225 226 224 218 218 219 220 222 226 227 229 231 231 230 227 223 224 225 226 232
213 215 216 215 215 216 217 218 220 220 222 223 223 224 223 222 221 219 220 221 223 224 224 224 221 217 218 220 220 223 226 227 229 230 230 228 223 219 221 222 225 230
213 214 215 215 215 215 216 217 219 221 222 223 224 224 222 221 221 220 220 221 223 223 223 222 220 217 218 221 222 223 224 226 228 229 229 226 222 220 219 220 225 229
213 214 215 215 216 216 216 215 216 219 221 223 224 223 221 221 221 220 219 220 222 223 222 221 220 218 219 222 224 224 224 227 228 227 228 225 222 221 220 221 226 231
212 214 215 215 215 215 215 215 215 217 219 222 223 223 222 222 222 220 218 218 220 221 221 220 220 219 219 222 225 225 225 228 228 227 227 224 222 223 223 223 226 231
213 214 215 215 215 214 215 216 217 217 219 221 223 224 224 223 223 220 218 217 218 219 219 219 220 220 220 223 225 226 227 228 227 226 225 224 224 226 226 224 225 228
212 214 214 214 213 214 215 217 217 218 219 221 222 224 224 223 222 220 218 218 217 217 218 219 220 220 221 224 225 226 226 226 226 224 223 224 224 224 225 224 224 226
212 213 213 213 212 213 216 217 217 217 218 219 221 223 224 223 221 219 217 217 217 217 217 218 220 220 221 223 224 225 224 224 224 223 221 222 222 221 220 220 221 224
211 212 212 212 211 213 215 216 216 216 215 217 219 221 222 222 220 218 216 216 217 217 217 218 220 221 221 222 223 223 223 223 223 221 220 221 222 221 220 220 222 224
211 212 211 211 210 212 215 215 214 213 213 215 217 219 220 220 219 217 215 215 216 216 216 217 219 220 221 222 223 223 224 223 222 221 221 223 224 224 223 224 225 227
210 211 211 211 211 212 214 214 213 211 211 213 215 216 218 218 216 215 214 215 215 216 217 218 219 220 221 221 222 223 224 224 223 223 224 225 226 227 227 227 228 230
210 210 211 211 211 213 214 213 212 210 210 212 213 214 215 216 215 214 214 215 217 218 218 219 219 220 221 221 222 222 223 224 224 224 226 227 228 230 231 231 231 232
209 211 211 211 212 213 214 213 211 210 210 210 212 212 213 214 214 215 215 216 217 218 219 219 219 219 221 221 220 221 222 223 223 224 227 228 230 233 234 234 235 236
210 210 211 211 212 212 213 213 212 211 210 210 209 210 211 212 214 215 216 217 218 219 219 219 218 219 220 220 219 219 221 222 223 224 227 229 231 235 236 237 240 241
208 209 210 210 210 211 212 212 211 210 210 209 209 209 210 212 214 215 215 216 217 218 219 219 219 220 221 219 218 218 220 222 222 224 226 228 230 234 237 240 245 246
206 207 208 208 208 210 211 211 210 210 209 209 209 209 210 211 213 214 214 216 217 217 218 218 219 222 222 221 219 218 219 220 220 223 226 225 225 231 235 238 243 247
204 205 205 206 207 209 210 210 209 208 209 209 209 209 209 210 210 211 213 215 216 217 216 217 221 223 223 222 221 220 219 218 218 221 223 222 223 229 233 236 242 247
202 202 203 205 206 207 207 208 207 207 209 210 209 209 208 208 208 210 212 214 215 216 216 219 222 225 225 224 222 221 220 216 214 217 222 224 226 228 231 236 243 248
200 200 202 204 205 205 205 204 205 207 209 210 210 209 207 206 208 209 211 212 213 215 217 220 224 226 226 226 224 223 218 210 208 217 224 227 228 229 231 236 242 245
198 199 202 204 204 203 201 202 205 208 210 210 210 208 206 207 207 208 209 211 212 215 217 221 224 226 227 227 227 224 215 205 205 216 226 229 228 230 233 238 242 243
198 199 201 202 202 201 200 203 205 207 209 209 208 207 208 208 207 207 208 209 212 214 217 220 224 226 227 228 228 223 213 204 202 212 225 229 228 232 237 240 244 245
198 199 200 200 200 200 202 204 205 207 209 208 208 208 209 210 209 207 207 208 211 213 216 220 224 226 227 229 228 220 210 201 199 211 223 225 226 234 239 240 244 246
198 198 198 199 198 200 203 205 206 208 208 207 206 207 209 210 210 207 206 208 210 212 215 219 223 226 227 228 226 217 204 197 201 212 219 221 227 236 236 234 237 242
199 198 198 198 199 202 204 204 206 208 208 207 206 207 209 211 209 207 207 209 210 211 214 218 222 225 227 227 224 214 201 197 204 212 214 219 229 235 233 229 231 237
199 198 198 199 202 203 204 205 207 208 207 207 207 209 212 212 208 207 208 209 210 212 215 218 220 223 226 225 221 214 202 197 204 211 213 218 224 227 228 228 230 236
200 199 200 202 203 204 204 205 206 206 206 206 207 210 212 211 209 208 208 208 209 212 215 217 217 221 224 222 219 215 203 196 200 209 215 220 221 221 224 227 230 237